Skip to main content.
NOAA NWS Hourly Roundups by Site

NOAA NWS Hourly Roundups by Site

Regional Weather Roundup for Omaha, NE

To Select Another Site Choose from List

Select Site:  

000
ASUS43 KOAX 141010
RWRNE

WEATHER ROUNDUP FOR NEBRASKA
NATIONAL WEATHER SERVICE OMAHA NE
500 AM CDT FRI MAY 14 2021

NOTES: SATELLITE DATA IS BEING USED TO AUGMENT CLOUD COVER ABOVE
       12000 FEET.
       "FAIR" INDICATES FEW OR NO CLOUDS BELOW 12,000 FEET WITH NO
       SIGNIFICANT WEATHER AND/OR OBSTRUCTIONS TO VISIBILITY.


NEZ001>004-019>022-054>056-141100-
NEBRASKA PANHANDLE

CITY           SKY/WX    TMP DP  RH WIND       PRES   REMARKS
SCOTTSBLUFF    PTCLDY    42  39  89 NW7       30.13S
ALLIANCE       PTCLDY    34  34 100 W6        30.11S WCI  29
CHADRON        CLEAR     40  37  89 CALM      30.11F
GORDON         CLEAR     38  38  97 W3        30.10S
KIMBALL        CLOUDY    46  45  95 N7        30.13F
SIDNEY         PTCLDY    46  44  93 N5        30.11S
$$

NEZ057>060-069>072-079>082-141100-
SOUTHWEST NEBRASKA

CITY           SKY/WX    TMP DP  RH WIND       PRES   REMARKS
NORTH PLATTE   CLEAR     51  47  86 S9        30.08S
IMPERIAL       PTCLDY    48  45  89 SE9       30.08R
LEXINGTON      CLEAR     51  48  87 S20G30    30.08F
MCCOOK         CLEAR     50  45  83 S13       30.08F
OGALLALA       CLEAR     42  41  95 CALM      30.11S
$$

NEZ005>010-023>029-035>040-094-141100-
NORTH CENTRAL NEBRASKA

CITY           SKY/WX    TMP DP  RH WIND       PRES   REMARKS
VALENTINE      FOG       46  43  89 W6        30.09S VSB 1/4
AINSWORTH      CLOUDY    52  50  92 W5        30.10S
BROKEN BOW     CLEAR     50  47  89 S3        30.08S
O`NEILL        CLOUDY    49  46  91 S6        30.10S
ORD            CLEAR     47  45  93 CALM      30.10S
$$

NEZ041-046>049-061>064-073>077-083>087-141100-
SOUTH CENTRAL NEBRASKA

CITY           SKY/WX    TMP DP  RH WIND       PRES   REMARKS
GRAND ISLAND   CLEAR     51  47  86 S7        30.11F
AURORA         PTCLDY    51  47  87 S5        30.12S
HASTINGS       CLEAR     52  49  89 S8        30.11F
HEBRON         MOCLDY    55  48  78 SW10G21   30.15R
HOLDREGE       CLEAR     52  48  88 S17G25    30.09S
KEARNEY        CLEAR     53  48  83 S28G36    30.07F
YORK           MOCLDY    52  45  76 S8        30.13R
$$

NEZ011>018-030>034-042>045-141100-
NORTHEAST NEBRASKA

CITY           SKY/WX    TMP DP  RH WIND       PRES   REMARKS
NORFOLK        CLOUDY    52  43  71 SE7       30.12F
ALBION         MOCLDY    51  46  81 S7        30.12S
BLAIR          CLOUDY    56  35  43 S12       30.18R
COLUMBUS       CLOUDY    54  40  59 SE10      30.14F
FREMONT        CLOUDY    57  38  48 SE9       30.17R
TEKAMAH        CLOUDY    56  38  50 SE8       30.18R
WAYNE          CLOUDY    53  44  69 S10       30.14S
$$

NEZ050>053-065>068-078-088>093-141100-
SOUTHEAST NEBRASKA

CITY           SKY/WX    TMP DP  RH WIND       PRES   REMARKS
LINCOLN        MOCLDY    54  38  54 S8        30.17R
OMAHA EPPLEY   CLOUDY    57  34  41 S12       30.19R
BEATRICE       CLOUDY    54  41  60 SE8       30.16F
FALLS CITY     CLOUDY    53  37  54 SE6       30.20S
NEBRASKA CITY  MOCLDY    54  33  46 S9        30.20R
PLATTSMOUTH    CLOUDY    56  35  46 SE9       30.19R
$$

NEZ044-045-051>053-067-141100-
OMAHA AREA

CITY           SKY/WX    TMP DP  RH WIND       PRES   REMARKS
OMAHA EPPLEY   CLOUDY    57  34  41 S12       30.19R
BLAIR          CLOUDY    56  35  43 S12       30.18R
FREMONT        CLOUDY    57  38  48 SE9       30.17R
MILLARD        CLOUDY    58  35  42 SE8       30.18S
OFFUTT AFB     CLOUDY    57  34  41 S8        30.19R
PLATTSMOUTH    CLOUDY    56  35  46 SE9       30.19R
WAHOO          MOCLDY    55  38  52 SE7       30.16S
$$


 

View Past Reports for Omaha, NE.

Products Courtesy of NOAA-NWS
NWS Information Parsing Script by Ken True at Saratoga Weather - Script by SE Lincoln Weather.